STARLINK-1277, 45369

Orbit data source: Space-Track

STARLINK-1277, 45369 is a payload satellite owned by SpaceX/Seattle (US) in LEO that was launched on Wed, 18 Mar 2020 UTC via an FALCON 9 launch vehicle from the Air Force Eastern Test Range (AFETR). Payload-class satellites include a variety of spacecraft equipped with specific instruments for various scientific and technological missions. These include communications satellites like Starlink; space stations such as the ISS; scientific satellites like the Hubble; Earth observation satellites from companies like Planet Labs, Umbra, and HawkEye 360; GPS; miniature CubeSats for education and research; and military/defense satellites.

Loading next visibility...
Identifier
45369, 2020-019K
Orbit
LEO
Country
Flag of USUS
Related business
Manufacturer
SpaceX/Seattle
Mission
Partially operational Commercial Communications
Bus & Motor
STARLINK, Unknown motor
Mass
260 kg wet, ~248 kg dry
Launch date (UTC)
2020-03-18 (7 years ago)
Launch vehicle
FALCON 9
Launch site
Air Force Eastern Test Range (AFETR)
Object type
Payload
Rocket body
Debris
Shape & HBR
Box + 1 Pan, 10.1 m
Radar Cross Section
13.562 m², Large (>1 m²)

Expand to show TLE details & history
Last TLE update: 16 hours ago

TLE from 16 hours ago
0 STARLINK-1277
1 45369U 20019K   26263.56694554  .00079716  00000-0  41894-3 0  9991
2 45369  53.0370 275.7094 0004657  33.5762 326.5553 15.80048311360457
Epoch: 2026-09-20T13:36Z
TLE epoch observation values (Epoch: 2026-09-20T13:36:24.094Z)
Latitude
-0.00004°
Longitude
72.1497°
Altitude
328.603 km
Speed
7.714 km/s
True Right ascension
18h 22m 50s
True Declination
0° 00' 00"
Sunlit
Object was in daylight at epoch
Visualization orbit readout
Latitude
Unknown
Longitude
Unknown
Altitude
Unknown
Speed
Unknown
Apparent Right ascension
Unknown
Apparent Declination
Unknown
Sunlit
N/A
Visualization observer readout
Local Sidereal Time
22:06:19
Azimuth
Unknown
Elevation
Unknown
Doppler factor
Unknown
Orbital elements
Apogee altitude
333.71 km
Perigee altitude
327.462 km
Semi-major axis
6,708.723 km
Eccentricity
0.00047
Inclination
53.037°
RAAN
275.7094°
Arg. of periapsis
33.5762°
True anomaly
326.52587°
Mean anomaly
326.5553°
Eccentric anomaly
326.54059°
Mean motion
3.94988 °/min
Orbital period
91.14 mins
BSTAR
0.00041894
Loading maneuver chart data...
Computing Atmospheric mass density...

Documentation

Showing up to 5 results
|